Wind_Speed
16 17 16 14 9 7 9 9 8 8 9 9 10 13 16 20 23 21 17 16 16 16 15 15 14 14 14 14 14 13 12 12 12 11 11 10 10 10 10 9 8 8 8
18 17 18 18 15 11 11 12 10 9 10 10 11 13 13 17 23 25 20 18 16 17 17 16 16 16 15 15 15 15 14 14 12 13 11 11 11 11 11 11 11 9 9
21 21 22 23 21 17 13 15 13 11 11 12 12 14 15 16 19 23 26 23 14 20 18 16 18 18 17 16 16 15 15 15 13 13 14 14 14 13 13 12 13 13 10
18 22 23 25 22 20 17 15 17 15 12 11 12 13 12 14 17 20 20 23 24 25 20 20 20 20 18 18 18 17 16 16 15 15 15 16 15 16 15 15 14 14 13
15 17 20 21 20 20 20 18 19 17 16 14 14 14 13 11 10 15 20 19 20 19 21 20 21 22 20 19 19 19 18 17 16 16 16 18 16 17 18 18 17 16 15
17 16 16 18 18 19 19 21 21 19 16 15 17 15 13 11 12 12 14 15 16 18 18 18 20 22 22 21 22 22 21 19 17 16 18 19 19 18 19 19 20 19 18
18 18 18 20 19 19 19 21 21 21 17 16 17 14 14 11 13 13 13 14 14 16 18 18 19 20 22 24 24 24 24 22 22 17 16 18 18 19 19 20 20 21 21
21 21 21 20 19 18 19 20 22 22 20 19 18 18 11 13 14 14 15 16 14 15 17 17 18 20 21 22 26 26 26 23 22 23 20 20 18 19 18 20 21 21 21
23 20 20 19 19 21 20 22 24 25 24 21 22 11 7 7 14 16 16 16 15 14 13 16 19 21 23 24 24 26 27 26 21 22 22 22 20 18 20 19 19 21 21
23 20 21 21 20 21 23 22 25 25 26 23 22 24 13 8 8 8 13 15 15 12 11 14 18 20 21 24 23 24 27 28 29 25 23 21 21 18 19 18 19 19 21
19 19 21 21 19 20 21 22 25 25 25 25 23 27 24 12 10 8 9 13 13 13 10 11 14 17 18 20 21 23 25 27 28 26 24 22 20 19 20 20 20 18 20
13 18 19 21 19 17 21 23 25 26 26 24 27 27 26 25 22 21 18 17 16 16 10 10 13 16 16 16 18 19 21 22 23 21 22 23 20 18 20 20 23 18 16
2 5 10 14 14 14 18 19 23 24 25 25 24 30 26 23 22 20 20 18 16 14 10 10 11 12 13 14 15 15 16 16 19 19 19 20 20 18 18 17 18 16 13
3 2 6 9 10 12 15 18 20 22 22 24 23 23 23 23 21 20 21 19 15 14 10 10 8 10 9 9 11 13 12 13 15 16 16 15 17 16 17 16 17 17 17
4 2 2 5 6 9 12 16 18 20 20 21 21 20 21 22 22 23 22 20 18 11 9 7 9 13 13 13 11 11 11 12 15 15 13 13 17 15 17 16 17 18 18
7 3 0 3 5 7 10 13 14 15 16 18 18 20 21 22 21 22 21 18 15 12 11 10 9 11 12 16 15 11 11 9 9 7 9 8 8 13 14 14 15 16 15
9 8 5 1 2 5 6 8 12 11 12 13 15 18 20 20 20 20 20 21 20 16 11 10 13 13 11 14 15 13 10 7 9 11 13 15 11 12 12 13 13 12 11
8 8 9 7 7 5 4 6 8 9 11 12 13 15 17 18 22 19 17 19 17 17 14 14 12 12 13 14 6 7 13 12 10 7 7 10 9 11 11 10 10 10 10
8 8 8 10 10 11 9 6 3 3 4 7 9 10 11 12 15 15 14 13 12 14 16 16 11 9 7 6 3 2 4 6 7 8 8 11 10 11 11 11 11 11 10
9 9 10 10 10 10 9 8 5 2 3 5 6 6 8 8 9 9 14 13 11 10 6 1 4 5 6 6 7 6 8 8 10 13 12 14 12 12 13 12 12 11 11
7 10 10 10 10 10 11 10 9 5 4 8 11 13 13 13 12 10 9 9 7 6 6 7 8 9 10 10 9 10 10 10 9 10 10 10 10 11 11 11 10 10 10
4 5 6 8 7 7 9 7 7 4 2 1 0 1 2 3 5 6 7 5 7 9 11 11 10 10 12 15 15 16 15 13 10 9 9 11 12 10 8 8 8 7 8
3 3 4 6 6 7 7 6 5 3 3 5 4 4 2 1 1 3 2 2 3 5 7 7 9 8 9 10 10 10 10 10 11 11 12 11 10 8 9 8 7 7 8
3 2 2 3 4 7 9 9 8 6 4 4 6 6 7 8 9 8 6 5 5 3 2 0 5 7 6 6 4 2 4 10 13 10 9 7 8 8 9 8 8 7 9
4 3 2 2 3 6 8 7 6 6 5 7 8 9 8 7 10 10 6 6 5 6 6 6 4 7 9 8 4 4 2 2 3 5 6 9 10 9 9 9 9 10 10
6 4 3 4 6 6 6 4 3 2 1 3 6 7 9 8 8 6 3 4 3 4 4 4 4 2 1 2 2 2 3 5 6 8 7 7 9 8 6 9 9 9 13
Wind_Direction
226 214 208 211 208 233 239 230 230 234 228 228 223 209 217 212 216 216 215 211 218 221 220 223 224 218 217 214 216 215 215 218 215 217 211 213 212 212 204 214 205 199 191
228 223 222 216 228 252 252 236 233 239 234 237 220 219 219 217 221 221 222 227 239 233 220 224 228 224 222 224 221 220 222 222 223 224 224 226 228 221 219 215 218 213 208
235 234 232 239 244 250 255 238 233 237 234 233 228 225 225 220 224 223 222 225 239 230 227 231 233 229 226 230 230 227 227 230 226 227 227 231 234 232 230 225 223 223 221
248 242 244 244 242 236 247 247 239 239 234 226 226 233 218 219 227 225 227 235 234 224 234 238 232 232 229 232 235 232 229 232 230 231 231 234 239 238 235 235 231 229 229
238 243 244 239 235 239 239 242 243 232 229 220 218 222 216 206 230 217 222 236 219 226 236 242 236 234 232 234 239 239 232 233 229 232 245 236 244 243 240 236 237 235 235
250 250 245 232 233 235 238 234 234 226 225 217 217 210 212 201 218 221 220 231 220 227 230 240 242 240 235 238 238 240 237 234 236 244 257 244 246 247 241 241 239 239 237
253 247 243 243 235 241 235 229 226 221 219 213 212 209 216 204 221 229 232 238 228 229 235 239 244 241 239 243 241 241 239 238 244 250 261 249 254 247 246 242 242 241 240
262 254 243 236 238 240 233 224 224 224 217 215 210 213 217 222 219 220 227 232 235 241 244 248 251 245 242 256 249 244 243 248 245 255 257 254 255 250 251 245 247 244 241
258 252 244 240 243 241 237 225 222 224 217 217 217 212 196 214 209 219 223 229 235 239 247 252 251 249 249 258 253 248 244 246 253 260 257 252 249 254 250 251 255 248 241
253 248 248 249 246 237 236 228 223 226 221 219 222 216 223 206 187 198 218 224 232 241 265 265 260 256 257 254 253 252 250 249 259 275 251 250 249 259 255 253 256 249 242
251 244 244 237 235 234 231 229 222 223 225 222 222 219 218 216 209 206 207 214 221 235 259 282 279 265 255 253 249 255 250 259 261 263 247 247 246 251 250 249 252 249 243
245 242 242 233 232 237 230 226 225 222 223 226 221 225 226 233 239 241 243 246 254 253 269 287 289 274 255 250 254 257 253 257 251 245 242 247 243 250 250 254 253 252 250
277 230 216 212 222 238 223 223 224 223 224 228 231 228 229 235 245 251 250 254 252 259 282 279 303 269 251 256 255 257 260 261 248 247 246 243 237 246 252 259 245 245 242
38 169 197 215 237 232 220 220 223 226 226 228 232 234 233 234 239 246 245 242 249 258 274 297 305 277 255 252 255 257 257 251 244 241 246 242 234 243 251 254 251 249 249
42 36 198 213 230 218 212 216 221 226 231 234 240 240 235 237 240 241 239 246 243 244 254 293 304 273 257 250 253 253 250 244 249 252 231 225 240 245 247 248 249 251 253
26 70 141 226 218 214 213 216 219 223 230 230 234 241 238 236 237 239 235 229 236 248 257 266 292 277 261 243 246 252 247 238 248 234 228 231 229 247 249 247 244 243 240
44 57 45 25 220 209 204 205 210 219 229 227 238 240 226 228 231 230 230 241 245 239 254 281 274 277 272 253 235 242 243 241 252 243 245 242 235 249 244 233 232 233 232
52 66 70 69 83 110 167 196 204 219 216 220 231 223 228 230 236 243 233 237 241 239 253 265 270 257 263 265 261 265 254 239 208 230 252 233 235 243 235 227 223 222 227
69 72 79 81 86 87 94 113 159 195 206 209 218 223 225 224 224 224 224 232 244 254 251 248 242 241 247 257 233 238 263 242 237 229 247 250 228 226 226 226 229 232 230
79 80 86 91 90 89 89 85 85 143 193 200 199 206 213 208 219 235 231 237 241 211 186 190 200 202 217 219 231 241 249 252 246 241 233 239 230 227 229 226 226 231 237
85 81 77 76 75 74 73 70 74 103 147 154 163 171 172 171 174 180 187 188 212 262 272 260 243 246 249 251 252 250 246 247 249 225 217 212 217 223 224 227 230 231 235
96 80 75 74 75 77 74 72 75 92 127 87 80 195 247 275 291 291 277 268 262 264 268 258 259 261 263 258 255 259 244 237 222 223 224 232 230 220 223 228 227 233 244
142 126 106 99 89 85 82 74 67 83 69 83 75 70 52 66 195 165 52 323 293 268 249 254 256 267 270 267 264 248 214 232 221 224 218 232 242 241 238 236 245 262 269
163 159 132 106 101 93 89 74 69 85 99 101 95 98 98 96 93 80 69 70 83 82 83 288 239 224 239 218 259 261 227 229 228 229 238 246 246 241 234 237 247 260 273
174 168 169 154 140 119 116 102 75 67 95 109 109 111 93 82 84 75 54 50 76 64 70 68 59 53 39 24 28 10 347 259 247 230 236 245 239 232 234 250 255 247 233
196 202 195 171 154 156 138 121 102 44 349 147 128 119 107 98 95 90 79 82 52 63 67 42 37 25 16 27 323 305 286 274 276 273 258 244 225 216 223 232 225 225 241
Height
1547 1549 1549 1551 1552 1554 1555 1555 1556 1557 1558 1560 1561 1563 1563 1565 1566 1569 1570 1570 1574 1576 1578 1580 1581 1582 1584 1585 1586 1587 1589 1591 1592 1593 1594 1595 1596 1597 1598 1599 1600 1601 1602
1545 1546 1548 1548 1550 1552 1553 1553 1554 1554 1555 1557 1559 1560 1562 1563 1563 1566 1568 1570 1572 1574 1575 1577 1579 1580 1582 1583 1584 1585 1588 1589 1590 1592 1593 1593 1596 1597 1598 1598 1599 1600 1600
1540 1543 1545 1546 1547 1549 1550 1551 1551 1552 1553 1555 1556 1558 1559 1559 1559 1562 1565 1568 1570 1572 1574 1574 1577 1578 1580 1581 1582 1584 1586 1587 1588 1590 1591 1592 1593 1595 1596 1598 1598 1599 1600
1536 1537 1540 1542 1544 1545 1547 1548 1549 1549 1550 1552 1553 1556 1556 1555 1556 1558 1562 1564 1563 1568 1570 1572 1574 1576 1578 1579 1580 1581 1583 1584 1586 1586 1588 1589 1590 1592 1594 1596 1597 1598 1598
1532 1533 1535 1537 1540 1541 1542 1545 1546 1547 1548 1549 1552 1553 1554 1553 1554 1556 1559 1561 1562 1564 1567 1568 1570 1572 1575 1576 1578 1579 1580 1581 1582 1583 1584 1586 1588 1589 1590 1592 1594 1595 1596
1528 1528 1530 1533 1534 1535 1537 1540 1542 1544 1545 1546 1550 1551 1553 1552 1553 1555 1557 1559 1560 1562 1563 1565 1567 1567 1570 1572 1574 1576 1577 1577 1579 1580 1581 1582 1584 1586 1587 1588 1591 1592 1593
1524 1524 1525 1528 1529 1531 1532 1536 1539 1542 1542 1544 1547 1549 1551 1550 1552 1553 1555 1557 1557 1560 1562 1563 1563 1564 1566 1568 1570 1571 1573 1574 1576 1576 1577 1578 1580 1582 1583 1585 1586 1588 1589
1520 1519 1521 1523 1525 1527 1528 1531 1535 1538 1540 1541 1545 1547 1550 1551 1551 1551 1552 1553 1556 1558 1558 1559 1560 1561 1563 1564 1564 1566 1569 1570 1570 1573 1574 1575 1577 1578 1579 1580 1581 1583 1585
1514 1515 1516 1518 1521 1522 1524 1527 1531 1534 1536 1539 1543 1546 1546 1547 1548 1549 1550 1551 1553 1554 1554 1555 1555 1556 1558 1559 1560 1562 1564 1565 1566 1568 1570 1572 1573 1574 1575 1577 1577 1579 1580
1508 1509 1511 1513 1515 1517 1519 1522 1526 1531 1533 1536 1539 1542 1544 1544 1544 1545 1547 1548 1550 1551 1550 1551 1550 1551 1552 1553 1555 1556 1559 1561 1562 1563 1565 1567 1569 1570 1571 1573 1573 1574 1575
1503 1503 1505 1508 1511 1513 1515 1518 1522 1526 1529 1532 1535 1538 1541 1542 1542 1543 1545 1546 1547 1548 1547 1546 1546 1546 1547 1548 1550 1551 1553 1555 1557 1557 1559 1561 1563 1565 1566 1568 1569 1570 1571
1497 1498 1500 1503 1506 1508 1510 1514 1518 1522 1525 1528 1531 1534 1537 1539 1540 1541 1542 1543 1543 1545 1544 1541 1541 1541 1542 1544 1545 1547 1549 1550 1551 1552 1554 1556 1558 1560 1562 1564 1564 1567 1567
1495 1496 1498 1500 1503 1505 1507 1511 1514 1518 1521 1524 1526 1530 1533 1535 1537 1539 1539 1540 1540 1540 1539 1537 1537 1537 1539 1541 1542 1543 1545 1546 1547 1548 1550 1552 1555 1557 1559 1560 1562 1563 1564
1496 1496 1497 1499 1501 1502 1504 1508 1512 1515 1517 1520 1523 1526 1528 1531 1534 1535 1536 1537 1537 1536 1535 1535 1533 1537 1538 1539 1540 1540 1541 1542 1543 1544 1546 1549 1552 1553 1555 1557 1559 1561 1562
1497 1497 1497 1498 1499 1500 1502 1505 1509 1512 1514 1517 1519 1522 1524 1527 1529 1531 1532 1533 1533 1533 1531 1531 1533 1536 1536 1536 1537 1538 1538 1539 1540 1541 1542 1544 1547 1548 1551 1552 1554 1556 1557
1498 1496 1497 1497 1498 1499 1500 1503 1506 1509 1511 1513 1515 1518 1520 1523 1525 1526 1527 1528 1529 1529 1528 1529 1533 1534 1533 1533 1534 1536 1536 1536 1537 1538 1539 1541 1544 1546 1548 1549 1551 1552 1553
1500 1499 1498 1498 1498 1499 1500 1502 1504 1506 1508 1510 1512 1514 1516 1519 1521 1522 1523 1525 1526 1526 1526 1528 1530 1531 1532 1531 1532 1534 1535 1536 1536 1537 1539 1541 1541 1543 1544 1545 1547 1548 1550
1503 1501 1501 1500 1499 1499 1501 1503 1504 1506 1507 1508 1510 1512 1515 1516 1517 1518 1519 1522 1523 1524 1526 1528 1528 1529 1530 1531 1531 1531 1531 1531 1532 1534 1537 1538 1538 1541 1542 1543 1545 1546 1548
1506 1505 1504 1502 1502 1502 1503 1504 1505 1505 1506 1508 1509 1510 1511 1513 1514 1516 1518 1519 1521 1522 1523 1525 1526 1527 1528 1529 1530 1530 1532 1532 1532 1533 1534 1536 1537 1539 1541 1542 1543 1545 1546
1510 1509 1507 1506 1506 1505 1505 1505 1506 1507 1507 1509 1510 1511 1512 1514 1515 1516 1517 1519 1520 1520 1521 1522 1524 1526 1527 1528 1528 1529 1530 1531 1532 1533 1534 1535 1537 1538 1539 1540 1541 1542 1544
1513 1512 1511 1510 1509 1509 1508 1508 1508 1509 1510 1511 1511 1512 1513 1513 1515 1517 1518 1518 1519 1521 1521 1522 1524 1525 1525 1526 1526 1528 1528 1529 1530 1531 1532 1533 1535 1536 1537 1539 1540 1540 1542
1516 1514 1514 1513 1512 1512 1512 1513 1513 1513 1515 1515 1515 1515 1515 1516 1517 1517 1518 1518 1520 1520 1521 1522 1522 1522 1523 1524 1525 1526 1525 1527 1529 1530 1531 1532 1532 1534 1536 1537 1538 1539 1540
1516 1516 1515 1514 1514 1514 1515 1515 1516 1516 1517 1517 1517 1517 1517 1518 1518 1518 1518 1519 1519 1520 1521 1521 1521 1521 1522 1522 1523 1521 1521 1524 1526 1528 1530 1530 1531 1532 1534 1536 1537 1537 1537
1516 1517 1516 1516 1516 1516 1516 1517 1517 1517 1518 1518 1519 1519 1519 1519 1519 1519 1520 1521 1521 1521 1521 1520 1519 1520 1521 1522 1522 1522 1523 1523 1524 1524 1527 1528 1529 1531 1534 1534 1534 1535 1535
1518 1518 1517 1517 1517 1517 1518 1518 1520 1520 1521 1521 1521 1522 1523 1522 1522 1523 1524 1524 1524 1524 1524 1524 1524 1523 1524 1524 1524 1525 1525 1525 1526 1527 1528 1529 1528 1529 1532 1531 1530 1532 1532
1518 1517 1517 1517 1517 1518 1519 1520 1521 1522 1522 1523 1523 1524 1524 1525 1525 1526 1526 1526 1526 1526 1526 1526 1526 1525 1525 1526 1526 1525 1526 1525 1526 1527 1528 1529 1528 1528 1528 1526 1527 1527 1529